EW5297 Weather Reports


time (UTC)temp
C
wind
direction
speed
KPH
gust
KPH
rain 1hr
cm
rain 24hr
cm
rain mn
cm
humidity
%
barometer
mb
20260505040316 21 170 4.8 16.1 0.00 0.00 0.00 79
20260505034812 22 138 1.6 8.0 0.00 0.00 0.00 78
20260505033314 22 200 6.4 16.1 0.00 0.00 0.00 74
20260505031813 22 159 3.2 11.3 0.00 0.00 0.00 75
20260505030311 22 153 6.4 12.9 0.00 0.00 0.00 74
20260505024813 22 165 8.0 17.7 0.00 0.00 0.00 71
20260505023329 22 149 3.2 14.5 0.00 0.00 0.00 70
20260505021829 23 142 4.8 8.0 0.00 0.00 0.00 76
20260505020327 22 155 1.6 8.0 0.00 0.00 0.00 78
20260505014825 22 156 1.6 3.2 0.00 0.00 0.00 79
20260505013325 22 153 0.0 0.0 0.00 0.00 0.00 78
20260505011822 23 139 3.2 11.3 0.00 0.00 0.00 73
20260505010319 23 148 3.2 4.8 0.00 0.00 0.00 73
20260505004819 22 143 1.6 6.4 0.00 0.00 0.00 72
20260505003318 22 171 3.2 4.8 0.00 0.00 0.00 78
20260505001838 21 184 1.6 4.8 0.00 0.00 0.00 87
20260505000315 20 328 0.0 0.0 0.00 0.00 0.00 91 1023.4
20260504234813 20 328 0.0 0.0 0.00 0.10 0.00 93 1023.4
20260504233313 18 328 1.6 3.2 0.00 0.10 0.00 94 1023.4
20260504231830 18 328 0.0 0.0 0.00 0.10 0.00 94 1023.4
20260504230326 18 328 0.0 0.0 0.00 0.10 0.00 94
20260504224827 17 328 0.0 0.0 0.00 0.10 0.00 94
20260504223325 17 328 0.0 0.0 0.00 0.10 0.00 94
20260504221828 17 328 0.0 0.0 0.00 0.10 0.00 94
20260504220324 17 328 0.0 0.0 0.00 0.10 0.00 94
20260504214821 16 328 0.0 0.0 0.00 0.71 0.00 94
20260504213342 16 328 0.0 0.0 0.00 0.71 0.00 94
20260504211818 16 328 0.0 0.0 0.00 0.71 0.00 94
20260504210320 16 328 0.0 0.0 0.00 0.71 0.00 94
20260504204816 16 328 0.0 0.0 0.00 1.09 0.00 94
20260504203314 16 328 0.0 0.0 0.00 1.09 0.00 93
20260504201817 16 328 0.0 0.0 0.00 1.09 0.00 93 176.6
20260504200312 16 328 0.0 0.0 0.00 1.09 0.00 93
20260504194829 16 328 0.0 0.0 0.00 1.19 0.00 93
20260504193310 16 328 0.0 0.0 0.00 1.19 0.00 93
20260504191826 16 328 0.0 0.0 0.00 1.19 0.00 93
20260504190328 16 328 0.0 3.2 0.00 1.19 0.00 93
20260504184845 16 311 1.6 1.6 0.00 1.19 0.00 93
20260504183322 16 310 0.0 6.4 0.00 1.19 0.00 93
20260504181823 16 333 1.6 3.2 0.00 1.19 0.00 93
20260504180318 16 333 0.0 3.2 0.00 1.19 0.00 93 708.8
20260504174816 16 333 0.0 0.0 0.00 1.19 0.00 93 708.8
20260504173315 16 333 0.0 0.0 0.00 1.19 0.00 93
20260504171811 16 333 0.0 0.0 0.00 1.19 0.00 93
20260504170334 16 333 0.0 0.0 0.00 1.19 0.00 93
20260504160325 17 347 0.0 4.8 0.00 1.19 0.00 93
20260504150323 17 251 0.0 3.2 0.00 1.19 0.00 93
20260504140316 17 300 0.0 3.2 0.00 1.19 0.00 93 903.6
20260504130311 17 300 0.0 3.2 0.00 1.19 0.00 93
20260504110322 17 298 0.0 3.2 0.00 1.19 0.23 92 608.4
20260504100314 17 298 0.0 0.0 0.00 1.19 0.23 92 719.1
20260504081823 18 298 0.0 0.0 0.00 1.30 0.23 90 719.5
20260504080339 18 298 0.0 0.0 0.00 1.30 0.23 90 720.6
20260504070310 19 294 0.0 0.0 0.00 1.30 0.23 88 728.4
20260504050316 22 304 1.6 3.2 0.00 3.99 0.23 79 1015.0